Location: Castiglione Fibocchi
(43.5333°N, 11.7667°E)
Time: 18:57:00
(UTC+00:00)

Atlas Centaur 2 - Pass Details

Date: 15 August 2020
Orbit: 459 x 1310 km, 30.4° (Epoch: 20 September)

Event Time Altitude Azimuth Distance (km) Brightness Sun altitude
Exits shadow 03:20:44 13° 233° (SW) 2,523 4.0 -10.2°
Maximum altitude 03:25:33 27° 182° (S) 1,937 3.8 -9.5°
Drops below altitude 10° 03:31:52 10° 128° (SE) 3,145 5.5 -8.5°
Sets 03:35:24 0° 118° (ESE) 4,199 6.3 -7.9°
